Theta_e
319 310 306 302 292 290 286 290 292 294 295 297 300 306 307 308 306 300 324 331 335 336 339 337 338 334 334 335 338 344 345 345 347 347 347 347 347 347 347 348 349 348 347 346 344 344 343 343 343
313 311 304 295 287 283 284 289 291 293 296 298 299 300 301 300 308 316 318 329 334 336 336 334 334 334 333 334 339 340 343 344 342 345 347 347 347 347 346 347 348 348 346 346 344 342 343 342 342
306 307 297 290 285 282 285 290 290 295 296 297 295 302 299 299 304 308 319 326 326 327 333 332 333 334 334 336 334 340 341 341 341 344 343 345 346 347 345 347 347 348 347 346 343 342 342 341 341
303 299 294 287 285 287 289 290 291 294 298 298 295 295 300 302 303 311 316 315 314 317 322 333 337 337 333 331 331 333 339 341 340 340 341 342 343 344 345 346 347 346 345 344 343 342 339 339 338
298 293 286 285 285 289 290 293 293 293 292 294 296 294 296 300 303 308 308 310 309 310 313 324 334 338 335 331 332 335 338 337 336 335 334 336 338 337 339 342 344 346 344 343 342 339 336 335 330
294 290 283 281 285 289 290 292 294 291 293 295 293 295 291 297 299 306 305 305 307 307 310 313 320 331 332 336 337 336 336 335 334 333 332 332 331 331 332 332 342 343 342 341 338 336 334 329 332
291 286 282 281 285 288 291 295 292 289 290 292 293 291 293 295 298 301 303 303 304 305 306 308 313 324 328 329 331 333 333 333 333 331 329 328 328 328 327 327 329 342 340 337 333 331 329 326 329
292 288 283 283 283 286 292 292 293 292 290 294 293 288 287 293 298 300 302 301 301 302 303 304 307 312 320 328 325 327 329 330 330 328 327 326 325 324 323 322 324 339 335 331 328 325 324 323 328
293 285 282 284 285 287 292 290 292 293 290 292 292 290 292 296 299 297 297 297 298 299 300 302 304 306 311 320 326 325 325 326 326 325 323 323 323 321 321 321 321 319 327 327 324 322 321 324 325
289 284 285 289 290 289 289 289 288 289 289 289 289 292 295 296 294 293 292 293 294 295 298 300 301 304 308 313 325 324 324 324 323 324 323 323 321 320 317 317 318 316 314 317 318 317 315 313 312
289 286 290 291 291 290 289 287 289 286 285 288 287 290 293 293 292 291 291 291 292 294 298 300 301 303 306 310 316 322 321 323 322 322 321 320 319 315 313 311 311 310 308 307 306 304 304 307 310
287 289 289 292 292 290 288 289 287 285 286 290 290 292 291 290 290 290 290 292 293 295 297 299 300 302 307 310 313 323 319 318 317 321 320 318 315 312 309 308 308 307 307 305 304 305 306 307 309
286 287 290 290 290 288 290 286 285 285 289 290 291 291 289 289 289 289 291 292 294 294 296 298 300 302 306 308 314 322 319 318 317 320 319 316 312 309 309 308 307 306 306 305 305 306 305 306 307
286 286 285 286 287 288 286 284 286 284 289 290 290 288 287 288 288 289 290 291 292 294 295 297 299 302 304 308 314 319 323 321 320 319 316 312 311 309 308 306 306 306 306 306 306 305 304 303 304
286 282 283 285 287 286 287 283 282 286 289 289 287 286 287 287 287 287 289 290 291 292 294 296 299 301 302 307 313 320 322 321 320 318 315 311 309 307 305 306 306 306 306 306 306 304 303 302 301
282 280 278 284 287 288 286 279 284 288 287 287 286 283 285 285 286 286 287 288 289 290 291 294 298 299 301 305 310 320 321 321 320 318 314 312 309 307 305 305 304 306 306 306 305 303 301 300 299
280 276 278 280 285 285 284 280 285 287 286 284 284 283 284 284 284 284 285 286 287 288 289 291 295 298 300 303 310 317 316 317 319 317 315 313 309 307 306 305 305 306 306 306 305 303 301 298 297
277 277 278 276 281 283 280 281 284 285 285 283 282 282 282 282 282 283 284 285 285 286 287 290 293 296 299 302 308 315 314 313 313 314 315 313 312 309 306 305 304 304 304 304 304 302 301 299 297
280 278 276 277 283 281 278 280 282 283 283 282 281 281 281 282 282 283 283 283 284 285 286 288 289 292 297 299 303 307 310 309 309 309 311 311 312 309 307 305 304 304 303 302 303 301 299 297 297
281 278 277 280 283 280 280 279 280 282 281 281 281 282 281 281 281 282 282 282 282 282 284 286 288 290 294 297 301 305 309 308 308 308 308 308 309 309 306 305 304 303 302 302 302 300 299 299 299
279 279 278 279 281 279 278 276 278 280 282 283 282 282 281 280 280 280 281 281 281 281 282 285 286 288 291 294 298 302 305 306 304 304 305 306 306 306 306 305 303 302 302 301 301 301 300 297 299
278 282 281 280 277 272 278 268 276 279 281 282 281 279 279 280 281 280 280 280 280 281 282 283 285 286 288 292 294 295 296 296 299 302 303 303 304 304 304 303 302 301 300 299 300 302 301 300 298
280 282 281 280 277 275 275 270 275 278 278 279 280 280 279 279 280 280 280 281 281 281 281 282 283 285 285 286 289 292 292 295 296 297 298 301 301 302 303 302 301 299 299 299 300 299 300 300 299
283 280 277 277 275 263 273 273 272 275 278 279 280 279 280 279 279 280 281 282 281 281 281 282 282 283 284 284 284 285 288 290 290 293 293 294 296 298 299 300 299 299 298 298 298 299 299 298 298
281 274 263 264 262 262 273 272 274 277 279 277 277 278 279 279 279 279 280 280 281 281 281 283 282 283 283 283 283 283 283 284 287 288 289 290 291 292 294 298 298 298 298 298 297 297 297 297 296
279 275 265 258 260 265 274 268 273 279 279 278 279 278 279 279 279 279 280 281 280 282 282 283 283 282 283 283 283 283 282 282 283 285 286 287 288 290 293 295 298 298 298 297 296 296 296 296 295
278 272 278 264 260 262 270 274 277 278 277 278 278 279 278 279 280 280 280 281 282 282 283 284 285 285 284 284 283 283 282 281 281 281 282 283 286 287 290 292 294 297 298 297 296 295 295 296 296
279 280 270 266 258 257 266 270 271 274 275 276 276 276 277 279 280 281 280 281 282 282 284 285 286 286 285 286 286 285 284 284 283 282 281 281 282 284 286 288 291 293 294 296 296 295 296 295 295
275 272 273 273 269 261 259 266 274 275 275 274 274 276 276 277 279 280 280 281 283 285 285 286 286 285 285 286 286 286 284 284 283 282 282 281 282 282 283 285 287 289 291 292 294 294 294 294 294
277 276 274 265 264 267 265 266 278 275 275 275 275 276 277 278 278 279 280 280 282 283 283 283 283 283 283 283 284 285 285 283 282 281 280 281 281 282 282 284 285 288 289 290 291 291 292 292 292
Wind_Speed
10 8 2 6 8 8 4 3 2 7 7 2 5 6 7 4 3 4 9 17 18 11 5 8 13 16 25 28 30 24 9 4 6 8 7 7 7 7 9 10 10 10 12 13 12 12 11 11 12
6 5 5 3 7 5 3 3 3 2 5 10 5 3 7 3 4 6 8 20 13 11 7 5 7 13 9 14 23 29 21 10 2 5 8 8 9 8 9 9 9 10 12 14 12 12 12 11 12
4 4 5 6 4 4 4 1 4 5 5 8 3 4 3 8 8 5 12 13 13 16 13 7 10 8 11 6 13 27 19 16 20 15 5 7 8 8 9 9 10 10 14 14 14 12 12 11 11
5 6 6 8 5 1 4 1 2 5 9 8 3 5 3 5 5 8 11 13 13 14 15 16 13 7 10 9 10 14 12 20 23 26 27 21 11 8 9 10 12 12 12 12 14 12 12 11 11
5 4 6 5 2 2 1 1 2 5 2 6 5 2 3 5 6 8 10 11 14 14 14 16 22 15 8 3 8 16 17 22 25 26 26 28 22 23 22 13 12 11 11 13 14 13 11 10 8
6 4 6 2 3 1 1 1 3 3 4 5 5 1 3 5 7 8 8 9 9 13 15 15 18 16 18 8 10 15 19 21 18 17 21 22 22 25 24 25 18 11 14 14 15 12 12 11 12
7 5 4 5 5 1 3 5 4 2 3 4 5 2 1 8 8 8 6 7 8 12 14 15 14 15 11 15 13 10 12 14 13 15 10 11 14 17 21 20 29 18 19 18 16 11 11 12 14
6 5 4 5 1 1 5 3 3 5 1 5 2 3 4 5 10 8 6 7 9 11 11 13 14 13 13 6 10 10 8 5 6 8 9 10 9 12 14 20 34 25 22 18 16 12 11 12 16
3 7 3 2 0 2 5 3 5 5 3 4 4 3 3 7 8 7 10 14 14 13 11 11 12 13 12 11 3 6 6 7 6 5 1 4 4 9 5 20 27 32 16 15 13 14 13 13 14
6 5 3 2 3 1 3 3 5 5 7 2 2 3 6 6 7 11 12 13 15 16 14 12 11 12 12 9 8 5 4 3 1 2 3 3 2 5 6 10 24 20 26 13 9 11 12 9 4
2 4 4 2 2 2 1 3 3 3 4 2 3 5 6 7 10 11 10 7 8 10 10 12 12 11 10 9 8 3 2 3 3 4 3 4 3 4 5 4 4 8 13 8 6 4 4 5 5
6 5 2 1 3 3 4 3 6 1 3 3 6 4 5 10 9 9 11 11 13 13 13 13 12 11 10 8 6 4 3 3 3 2 4 3 3 3 3 4 7 5 7 3 4 3 4 6 6
5 4 4 5 6 3 1 3 3 5 8 4 6 9 9 7 8 7 6 7 11 13 14 15 13 11 11 11 8 6 3 3 3 2 3 4 3 2 4 6 4 4 4 3 3 4 3 5 6
1 2 5 4 5 3 2 2 3 2 5 7 8 7 7 8 8 7 12 12 12 13 14 14 14 11 11 10 11 8 2 2 2 2 2 5 4 2 4 6 5 3 6 3 4 4 3 5 5
1 4 4 8 5 4 4 4 2 4 3 7 6 5 6 8 8 8 8 9 12 12 12 14 14 12 12 12 10 9 3 3 1 1 3 5 5 3 4 4 6 4 4 5 5 4 3 5 6
5 6 4 7 8 6 5 6 3 5 6 7 5 3 6 7 7 8 8 9 11 11 13 13 12 13 13 12 9 7 7 2 3 2 2 3 5 6 4 2 2 5 5 6 4 5 5 4 5
8 3 5 4 7 6 9 7 5 8 8 8 6 6 6 6 8 7 9 9 11 12 13 14 14 13 14 13 9 6 7 6 2 2 2 3 3 6 5 3 2 2 3 4 4 1 4 6 4
3 4 3 2 8 6 4 8 10 8 8 8 4 6 6 7 8 8 10 10 11 11 12 13 12 15 14 9 9 5 4 5 6 4 2 1 2 4 5 4 5 3 4 4 3 3 3 4 6
5 3 1 2 1 4 2 7 10 9 8 9 6 5 5 6 6 7 8 8 11 12 14 13 14 15 12 10 9 5 5 6 5 5 6 3 1 1 4 4 4 4 5 3 6 3 6 4 5
5 3 2 4 2 2 6 8 5 6 4 5 4 6 7 6 8 7 8 9 10 10 12 13 13 14 11 9 9 4 5 2 3 5 6 5 3 0 0 3 4 4 4 5 5 5 3 2 2
3 5 1 3 6 3 5 5 6 2 3 4 5 4 4 5 7 8 9 8 8 11 12 12 12 13 12 14 9 8 6 3 5 6 6 5 5 4 3 1 2 3 2 3 3 4 4 2 2
2 3 2 2 3 1 4 4 6 5 6 7 6 3 4 6 6 6 8 8 8 8 8 10 11 12 12 14 11 13 8 7 7 5 5 6 7 5 4 1 2 2 1 2 2 4 2 4 3
2 1 2 1 4 3 6 5 8 4 6 7 9 6 5 6 5 6 6 6 6 7 8 8 8 11 12 12 12 9 11 8 6 8 12 11 7 7 6 4 1 4 2 2 1 2 3 2 2
2 3 6 4 3 5 3 4 6 3 3 6 8 10 5 6 6 6 5 6 6 7 8 8 9 9 11 11 12 12 12 10 11 11 9 8 8 9 10 6 3 2 4 3 2 1 2 2 1
5 5 5 8 7 5 0 2 7 2 5 3 6 10 8 8 8 8 8 6 7 7 7 7 8 10 10 10 11 12 12 11 9 9 7 10 8 8 12 9 4 3 2 2 2 3 1 1 1
4 4 7 5 1 5 3 5 2 6 4 5 6 6 7 7 7 8 8 6 4 5 6 6 7 7 8 9 9 9 9 6 7 9 7 6 8 8 10 9 8 3 3 1 3 2 2 1 2
1 4 2 8 2 4 3 6 3 4 8 8 8 9 10 9 11 10 8 6 5 4 6 6 8 8 7 6 6 7 7 8 7 8 6 5 6 7 9 10 10 10 4 2 3 3 2 3 2
2 5 5 5 2 6 5 5 6 2 6 7 10 9 10 9 10 11 7 5 4 2 2 6 8 7 8 6 6 6 7 6 7 6 8 9 9 9 9 9 9 9 8 6 2 2 3 4 3
1 2 5 5 4 6 3 7 5 7 3 6 6 7 8 9 10 11 9 5 2 2 4 6 7 7 8 9 7 5 4 5 5 6 7 6 6 8 9 10 10 9 9 8 6 4 3 4 3
3 5 6 7 7 3 3 8 7 8 5 3 6 7 8 7 10 10 9 6 7 7 8 8 7 4 5 6 9 8 6 5 5 6 8 8 8 8 8 8 8 9 8 8 7 6 6 5 4
Wind_Direction
324 321 42 36 57 65 30 15 263 344 353 288 296 82 115 71 336 302 309 354 340 347 77 76 71 46 10 338 327 319 278 210 200 193 188 182 188 196 185 173 177 172 167 154 146 141 132 123 124
323 347 42 75 79 76 274 276 338 343 293 305 95 38 39 23 10 337 6 338 345 10 14 5 55 71 76 315 331 329 315 303 253 224 205 201 194 203 204 193 179 182 173 160 150 145 133 129 129
334 32 72 81 102 122 155 241 299 336 346 8 56 64 55 334 339 22 334 340 10 15 2 346 342 94 150 126 1 348 323 347 349 333 265 223 217 204 220 206 194 187 183 166 149 149 131 130 131
20 12 34 73 100 50 144 349 319 4 349 27 330 60 60 82 13 344 332 352 23 15 9 5 350 31 10 23 96 20 358 34 43 33 22 3 325 246 225 215 203 198 196 167 147 140 126 130 133
31 56 57 70 45 102 31 17 7 61 28 329 355 47 70 20 350 10 353 4 16 13 10 11 15 6 356 36 90 92 79 48 54 48 35 28 12 13 360 287 222 197 191 159 140 123 121 127 117
38 83 66 110 135 278 7 358 114 42 350 332 32 80 109 314 11 340 4 12 19 16 6 5 6 16 15 12 114 113 115 109 92 58 23 31 23 8 359 357 284 198 142 143 121 124 129 124 123
101 73 140 123 173 57 350 327 47 93 5 352 310 87 250 360 343 346 8 5 25 22 15 2 359 355 12 9 21 59 98 111 111 106 80 34 23 16 15 349 344 166 143 128 121 116 125 119 128
97 87 66 21 170 33 329 8 351 30 12 307 18 24 342 333 330 340 342 11 27 24 11 4 353 351 344 9 8 7 8 43 112 120 131 143 121 96 50 24 27 141 124 122 120 121 128 119 123
94 62 86 33 4 198 339 35 345 303 19 29 29 55 16 358 332 355 3 359 11 10 5 359 352 344 340 326 320 314 327 341 39 60 106 126 150 105 110 67 39 12 58 101 123 133 115 118 113
68 89 148 207 134 106 338 13 323 11 348 30 64 345 8 11 10 29 15 2 356 356 355 353 347 342 335 336 324 314 324 309 326 285 272 52 351 71 70 74 103 61 5 1 100 112 102 96 88
73 126 162 36 112 86 317 1 314 11 357 342 331 328 11 10 21 22 12 7 341 327 346 348 342 339 334 332 321 313 329 315 337 2 24 58 30 43 63 65 24 95 69 341 346 27 50 82 93
85 52 30 85 27 8 350 326 344 55 259 343 358 42 38 26 18 10 359 352 350 349 344 342 341 337 339 328 317 309 318 329 349 17 65 55 69 52 83 101 82 72 92 294 340 29 49 63 72
53 357 355 347 322 302 44 328 304 324 322 349 65 51 46 31 14 2 350 350 349 350 343 340 337 339 338 332 322 306 293 314 341 5 68 76 74 96 97 81 78 106 90 75 58 31 36 73 74
306 351 316 354 337 28 2 322 17 7 336 44 60 60 46 35 9 358 5 353 355 343 343 335 338 340 337 329 326 308 268 281 340 1 46 89 74 104 106 107 108 104 105 100 77 62 27 67 80
56 46 27 15 11 41 332 35 23 311 346 58 53 68 50 29 15 14 347 349 344 340 336 341 339 341 340 331 328 320 239 179 179 360 79 94 95 98 102 123 123 111 111 120 109 103 73 77 73
52 51 52 347 5 2 55 277 336 344 17 337 354 73 44 25 10 357 353 350 344 341 344 338 340 339 340 334 325 331 338 212 151 131 126 147 132 127 98 94 117 133 137 133 124 123 96 71 78
19 83 33 13 32 9 44 279 279 325 328 312 335 74 44 2 9 359 357 350 348 344 343 343 344 346 340 337 335 337 359 6 3 132 158 182 149 127 127 128 119 120 111 109 121 77 119 121 94
46 38 40 3 328 7 315 292 316 315 323 339 63 73 37 19 1 354 356 352 351 352 350 348 350 350 347 342 337 336 14 14 13 13 354 84 242 158 137 145 155 156 139 122 106 108 59 106 115
112 102 336 239 224 347 11 290 316 332 15 15 61 60 32 17 348 351 353 350 359 4 2 360 354 350 358 353 348 341 2 355 13 15 8 6 190 210 165 165 172 155 144 152 141 120 122 102 130
71 107 349 293 275 23 343 307 312 357 8 8 48 27 13 3 350 349 354 0 1 351 357 3 1 355 359 354 339 321 327 359 2 11 1 7 24 60 100 161 166 169 151 171 139 143 120 111 170
61 120 127 216 324 81 329 334 340 337 33 33 46 43 17 356 342 350 357 356 355 4 354 357 358 1 3 2 356 353 351 358 1 8 9 359 11 2 70 322 156 141 135 179 137 142 135 130 207
116 185 183 259 57 328 3 267 323 347 355 21 358 358 322 347 353 353 358 358 356 349 349 356 357 6 12 10 14 15 4 3 354 353 360 9 5 359 4 298 59 94 81 151 140 142 152 122 187
179 177 317 32 94 69 356 71 266 3 27 339 345 337 332 350 345 345 350 353 341 352 353 352 356 14 10 19 19 21 18 357 2 11 10 7 10 9 349 350 118 81 42 350 269 148 136 124 165
322 96 49 49 77 43 258 97 286 19 298 332 340 340 318 307 312 316 330 349 352 357 0 358 2 12 12 17 20 23 21 360 15 9 2 8 4 2 359 355 10 71 92 358 310 259 152 154 140
55 49 345 1 15 207 276 40 245 1 22 4 336 333 328 331 327 320 323 342 348 357 3 2 7 9 4 19 22 18 16 15 15 5 359 0 7 1 348 343 20 28 50 154 3 306 237 181 197
49 121 148 217 265 272 329 231 212 80 68 47 31 357 359 350 312 295 291 296 314 344 4 25 15 3 8 11 20 18 17 12 3 358 4 356 9 348 325 338 3 18 63 357 74 325 299 261 252
245 57 165 99 67 44 252 284 83 82 32 19 7 5 356 338 333 309 284 273 304 6 20 18 16 358 5 13 21 13 11 14 3 349 340 357 3 343 345 353 1 0 352 343 75 280 296 271 237
104 151 65 15 22 298 284 277 232 61 10 1 6 347 328 332 333 331 304 294 301 52 51 75 33 3 331 342 25 17 355 5 0 354 1 353 345 350 354 2 3 3 9 11 10 272 248 246 231
27 38 56 108 143 182 278 253 192 132 123 3 331 328 322 320 319 322 310 266 221 12 40 39 45 15 345 347 346 343 347 355 11 356 351 356 346 348 354 2 359 5 359 6 354 357 321 266 265
236 175 132 124 250 238 154 274 132 146 151 7 343 320 319 323 323 320 326 25 21 5 10 23 21 353 341 359 350 339 345 4 10 3 345 345 357 354 356 358 10 8 359 357 3 352 355 342 315